Location: Bratislava
(48.1500°N, 17.1170°E)
Time: 01:08:54
(UTC+02:00)

ISS - Visible Passes

Search period start: 06 May 2021 00:00
Search period end: 16 May 2021 00:00
Orbit: 418 x 421 km, 51.6° (Epoch: 05 May)

Date Brightness Start Highest point End Pass type
(mag) Time Alt. Az. Time Alt. Az. Time Alt. Az.
06 May -3.9 02:48:19 87° NW 02:48:21 88° NNW 02:51:45 10° ENE visible
06 May -2.7 04:22:08 10° WNW 04:25:24 44° N 04:28:40 10° ENE visible
07 May -2.2 02:02:24 30° ENE 02:02:24 30° ENE 02:04:18 10° ENE visible
07 May -2.9 03:35:20 15° W 03:37:53 47° N 03:41:11 10° ENE visible
08 May -0.9 01:16:28 12° ENE 01:16:28 12° ENE 01:16:49 10° ENE visible
08 May -3.1 02:49:23 38° WNW 02:50:22 54° NNW 02:53:42 10° ENE visible
08 May -2.7 04:24:14 10° WNW 04:27:31 47° N 04:30:49 10° E visible
09 May -3.1 02:03:25 54° NE 02:03:25 54° NE 02:06:16 10° ENE visible
09 May -2.6 03:36:44 10° WNW 03:40:00 44° N 03:43:16 10° ENE visible
10 May -1.7 01:17:25 23° ENE 01:17:25 23° ENE 01:18:49 10° ENE visible
10 May -2.7 02:50:21 19° WNW 02:52:28 44° N 02:55:44 10° ENE visible
10 May -3.3 04:26:13 10° WNW 04:29:36 67° NNE 04:32:57 10° E visible
11 May -2.8 02:04:19 41° NW 02:04:56 47° N 02:08:14 10° ENE visible
11 May -3.0 03:38:46 10° WNW 03:42:05 54° NNE 03:45:25 10° E visible
12 May -2.6 01:18:13 41° NE 01:18:13 41° NE 01:20:45 10° ENE visible
12 May -2.7 02:51:17 10° WNW 02:54:34 47° N 02:57:52 10° E visible
12 May -3.8 04:28:08 10° WNW 04:31:31 68° SSW 04:34:52 10° SE visible
13 May -1.6 00:32:04 20° ENE 00:32:04 20° ENE 00:33:17 10° ENE visible
13 May -2.6 02:04:58 19° WNW 02:07:02 44° N 02:10:18 10° ENE visible
13 May -3.8 03:40:41 10° WNW 03:44:04 87° NNE 03:47:28 10° ESE visible
13 May -1.0 23:45:41 11° ENE 23:45:41 11° ENE 23:45:50 10° ENE visible
14 May -2.6 01:18:34 34° NW 01:19:30 44° N 01:22:45 10° ENE visible
14 May -3.4 02:53:13 10° WNW 02:56:37 67° NNE 02:59:58 10° ESE visible
14 May -2.9 04:30:14 10° W 04:33:15 30° SW 04:36:16 10° SSE visible
14 May -2.0 21:16:56 10° SSE 21:18:42 14° SE 21:20:28 10° ESE visible
14 May -3.9 22:51:39 10° SW 22:55:00 68° SSE 22:58:22 10° ENE visible
15 May -2.8 00:28:40 10° W 00:31:57 47° N 00:35:14 10° ENE visible
15 May -3.0 02:05:46 10° WNW 02:09:06 54° NNE 02:12:26 10° E visible
15 May -3.5 03:42:39 10° WNW 03:45:54 45° SSW 03:49:09 10° SE visible
15 May -3.5 22:04:22 10° SW 22:07:35 46° SSE 22:10:51 10° ENE visible
15 May -3.0 23:41:05 10° W 23:44:25 54° NNW 23:47:44 10° ENE visible
